This is the latest recevied weather packets stored in our database for station/object AA7DG. If no packets are shown the sender has not sent any weather packets the latest 10 day(s).
| Time | Temp. | Humidity | Pressure | Rain* | Wind** | Luminosity | Snow |
|---|---|---|---|---|---|---|---|
| 1777368910 | 10.56° C | 57% | 1015.5 hPa | - | - | - | - |
| 1777367407 | 11.11° C | 54% | 1015.2 hPa | - | - | - | - |
| 1777366806 | 11.67° C | 53% | 1015.2 hPa | - | - | - | - |
| 1777366206 | 11.67° C | 53% | 1015.2 hPa | - | - | - | - |
| 1777364705 | 11.67° C | 52% | 1014.9 hPa | - | - | - | - |
| 1777364406 | 12.22° C | 52% | 1014.9 hPa | - | - | - | - |
| 1777363817 | 12.22° C | 52% | 1014.9 hPa | - | - | - | - |
| 1777361710 | 12.22° C | 50% | 1014.6 hPa | - | - | - | - |
| 1777359911 | 11.67° C | 53% | 1014.9 hPa | - | - | - | - |
| 1777359006 | 11.11° C | 56% | 1015.2 hPa | - | - | - | - |
| 1777358406 | 11.11° C | 56% | 1014.9 hPa | - | - | - | - |
| 1777356301 | 11.67° C | 53% | 1014.9 hPa | - | - | - | - |
| 1777354802 | 12.78° C | 46% | 1014.2 hPa | - | - | - | - |
| 1777352101 | 12.22° C | 51% | 1014.2 hPa | - | - | - | - |
| 1777351802 | 12.22° C | 52% | 1014.1 hPa | - | - | - | - |
| 1777350902 | 12.78° C | 49% | 1013.9 hPa | - | - | - | - |
| 1777350601 | 12.78° C | 49% | 1013.9 hPa | - | - | - | - |
| 1777348800 | 13.33° C | 45% | 1013.9 hPa | - | - | - | - |
| 1777348501 | 13.33° C | 45% | 1013.9 hPa | - | - | - | - |
| 1777347901 | 13.89° C | 44% | 1013.6 hPa | - | - | - | - |
| 1777346701 | 13.89° C | 42% | 1013.5 hPa | - | - | - | - |
| 1777346101 | 13.89° C | 42% | 1013.3 hPa | - | - | - | - |
| 1777341906 | 15.56° C | 40% | 1013.2 hPa | - | - | - | - |
| 1777340700 | 15.56° C | 37% | 1012.9 hPa | - | - | - | - |
| 1777340104 | 16.11° C | 36% | 1012.9 hPa | - | - | - | - |
* Rain since midnight (hover to see other rain measurements)
** Current wind speed in m/s (hover to see current wind gust speed)